• In Deutschland
  • Länderverzeichnis
  • Für 7 Tage
  • Wassertemperatur
  • Satellitenkarten
  • Wetterkarte
  • Widgets
  • user-avatar
    Anmelden

    Stündliche Wetter Weliko Tarnovo

    Heute, 17 Januar, Mittwoch

    Zeit Temperatur Niederschläge Wind Luftdruck Luftfeuchtigkeit
    00:00 +1°C° 0 mm 2 m/S 734 mmHg 86%
    01:00 +1°C° 0 mm 2 m/S 733 mmHg 86%
    02:00 +1°C° 0 mm 2 m/S 733 mmHg 85%
    03:00 +1°C° 0 mm 2 m/S 732 mmHg 84%
    04:00 +1°C° 0 mm 2 m/S 732 mmHg 84%
    05:00 +1°C° 0 mm 2 m/S 732 mmHg 83%
    06:00 +1°C° 0 mm 2 m/S 731 mmHg 82%
    07:00 +1°C° 0 mm 2 m/S 731 mmHg 81%
    08:00 +1°C° 0 mm 2 m/S 731 mmHg 81%
    09:00 +3°C° 0 mm 2 m/S 730 mmHg 81%
    10:00 +4°C° 0 mm 2 m/S 729 mmHg 81%
    11:00 +5°C° 0 mm 3 m/S 729 mmHg 82%
    12:00 +5°C° 0 mm 3 m/S 728 mmHg 80%
    13:00 +6°C° 0 mm 4 m/S 726 mmHg 78%
    14:00 +7°C° 0 mm 4 m/S 725 mmHg 76%
    15:00 +6°C° 0,1 mm 4 m/S 724 mmHg 76%
    16:00 +6°C° 0,1 mm 4 m/S 723 mmHg 77%
    17:00 +5°C° 0,1 mm 5 m/S 722 mmHg 78%
    18:00 +5°C° 0,2 mm 5 m/S 721 mmHg 78%
    19:00 +5°C° 0,2 mm 5 m/S 720 mmHg 79%
    20:00 +6°C° 0,2 mm 5 m/S 719 mmHg 79%
    21:00 +4°C° 0,6 mm 6 m/S 719 mmHg 82%
    22:00 +3°C° 0,6 mm 6 m/S 719 mmHg 86%
    23:00 +2°C° 0,6 mm 7 m/S 719 mmHg 89%

    Morgen, 18 Januar, Donnerstag

    Zeit Temperatur Niederschläge Wind Luftdruck Luftfeuchtigkeit
    00:00 0°C° 0,1 mm 8 m/S 720 mmHg 86%
    01:00 0°C° 0,1 mm 8 m/S 721 mmHg 83%
    02:00 0°C° 0,1 mm 9 m/S 721 mmHg 79%
    03:00 -2°C° 0 mm 10 m/S 722 mmHg 78%
    04:00 -2°C° 0 mm 11 m/S 723 mmHg 76%
    05:00 -3°C° 0 mm 11 m/S 724 mmHg 74%
    06:00 -3°C° 0 mm 11 m/S 724 mmHg 74%
    07:00 -3°C° 0 mm 11 m/S 725 mmHg 73%
    08:00 -4°C° 0 mm 11 m/S 726 mmHg 72%
    09:00 -3°C° 0,2 mm 11 m/S 727 mmHg 71%
    10:00 -3°C° 0,2 mm 11 m/S 728 mmHg 70%
    11:00 -3°C° 0,2 mm 11 m/S 730 mmHg 70%
    12:00 -2°C° 0,1 mm 11 m/S 730 mmHg 67%
    13:00 -2°C° 0,1 mm 11 m/S 731 mmHg 65%
    14:00 -1°C° 0,1 mm 11 m/S 732 mmHg 63%
    15:00 0°C° 0 mm 10 m/S 733 mmHg 64%
    16:00 -1°C° 0 mm 9 m/S 733 mmHg 66%
    17:00 -1°C° 0 mm 8 m/S 734 mmHg 68%
    18:00 -2°C° 0 mm 7 m/S 735 mmHg 69%
    19:00 -2°C° 0 mm 6 m/S 735 mmHg 70%
    20:00 -3°C° 0 mm 6 m/S 736 mmHg 71%
    21:00 -2°C° 0 mm 5 m/S 736 mmHg 70%
    22:00 -2°C° 0 mm 4 m/S 736 mmHg 69%
    23:00 -1°C° 0 mm 3 m/S 736 mmHg 68%

    übermorgen, 19 Januar, Freitag

    Zeit Temperatur Niederschläge Wind Luftdruck Luftfeuchtigkeit
    00:00 -1°C° 0 mm 3 m/S 736 mmHg 64%
    01:00 -1°C° 0 mm 3 m/S 736 mmHg 61%
    02:00 -1°C° 0 mm 2 m/S 735 mmHg 58%
    03:00 +1°C° 0 mm 2 m/S 735 mmHg 57%
    04:00 +1°C° 0 mm 2 m/S 735 mmHg 57%
    05:00 0°C° 0 mm 3 m/S 735 mmHg 56%
    06:00 +1°C° 0 mm 2 m/S 735 mmHg 57%
    07:00 +1°C° 0 mm 2 m/S 735 mmHg 57%
    08:00 +2°C° 0 mm 2 m/S 735 mmHg 58%
    09:00 +3°C° 0 mm 2 m/S 735 mmHg 55%
    10:00 +5°C° 0 mm 2 m/S 735 mmHg 53%
    11:00 +7°C° 0 mm 2 m/S 735 mmHg 51%
    12:00 +8°C° 0 mm 2 m/S 735 mmHg 50%
    13:00 +8°C° 0 mm 2 m/S 735 mmHg 50%
    14:00 +9°C° 0 mm 2 m/S 734 mmHg 49%
    15:00 +8°C° 0 mm 2 m/S 735 mmHg 54%
    16:00 +7°C° 0 mm 2 m/S 735 mmHg 58%
    17:00 +7°C° 0 mm 1 m/S 735 mmHg 63%
    18:00 +6°C° 0 mm 1 m/S 735 mmHg 62%
    19:00 +5°C° 0 mm 1 m/S 735 mmHg 62%
    20:00 +5°C° 0 mm 1 m/S 735 mmHg 62%
    21:00 +5°C° 0 mm 1 m/S 735 mmHg 62%
    22:00 +3°C° 0 mm 2 m/S 735 mmHg 62%
    23:00 +3°C° 0 mm 2 m/S 735 mmHg 62%

    20 Januar, Samstag

    Zeit Temperatur Niederschläge Wind Luftdruck Luftfeuchtigkeit
    00:00 +3°C° 0 mm 2 m/S 735 mmHg 62%
    01:00 +3°C° 0 mm 2 m/S 735 mmHg 63%
    02:00 +3°C° 0 mm 2 m/S 734 mmHg 63%
    03:00 +3°C° 0 mm 2 m/S 734 mmHg 64%
    04:00 +3°C° 0 mm 2 m/S 734 mmHg 65%
    05:00 +3°C° 0 mm 2 m/S 733 mmHg 65%
    06:00 +3°C° 0 mm 2 m/S 733 mmHg 66%
    07:00 +3°C° 0 mm 2 m/S 733 mmHg 66%
    08:00 +3°C° 0 mm 2 m/S 733 mmHg 66%
    09:00 +4°C° 0 mm 2 m/S 733 mmHg 64%
    10:00 +6°C° 0 mm 2 m/S 732 mmHg 62%
    11:00 +7°C° 0 mm 2 m/S 732 mmHg 60%
    12:00 +8°C° 0 mm 2 m/S 731 mmHg 60%
    13:00 +8°C° 0 mm 2 m/S 731 mmHg 60%
    14:00 +9°C° 0 mm 3 m/S 730 mmHg 59%
    15:00 +8°C° 0 mm 3 m/S 730 mmHg 65%
    16:00 +7°C° 0 mm 3 m/S 731 mmHg 71%
    17:00 +5°C° 0 mm 3 m/S 731 mmHg 77%
    18:00 +4°C° 0,4 mm 3 m/S 731 mmHg 80%
    19:00 +3°C° 0,4 mm 3 m/S 732 mmHg 84%
    20:00 +3°C° 0,4 mm 4 m/S 732 mmHg 87%
    21:00 +1°C° 0,1 mm 4 m/S 732 mmHg 86%
    22:00 +1°C° 0,1 mm 4 m/S 733 mmHg 86%
    23:00 0°C° 0,1 mm 4 m/S 733 mmHg 85%

    21 Januar, Sonntag

    Zeit Temperatur Niederschläge Wind Luftdruck Luftfeuchtigkeit
    00:00 0°C° 0 mm 4 m/S 733 mmHg 85%
    01:00 0°C° 0 mm 3 m/S 734 mmHg 84%
    02:00 0°C° 0 mm 3 m/S 734 mmHg 83%
    03:00 0°C° 0 mm 3 m/S 734 mmHg 83%
    04:00 -1°C° 0 mm 3 m/S 735 mmHg 82%
    05:00 -1°C° 0 mm 3 m/S 735 mmHg 81%
    06:00 -1°C° 0 mm 3 m/S 735 mmHg 80%
    07:00 -1°C° 0 mm 2 m/S 736 mmHg 80%
    08:00 -1°C° 0 mm 2 m/S 736 mmHg 79%
    09:00 +1°C° 0 mm 2 m/S 737 mmHg 75%
    10:00 +2°C° 0 mm 2 m/S 737 mmHg 72%
    11:00 +2°C° 0 mm 2 m/S 737 mmHg 68%
    12:00 +3°C° 0 mm 2 m/S 737 mmHg 66%
    13:00 +3°C° 0 mm 2 m/S 737 mmHg 64%
    14:00 +3°C° 0 mm 2 m/S 737 mmHg 62%
    15:00 +4°C° 0 mm 1 m/S 737 mmHg 65%
    16:00 +3°C° 0 mm 1 m/S 737 mmHg 69%
    17:00 +3°C° 0 mm 1 m/S 737 mmHg 72%
    18:00 +3°C° 0 mm 1 m/S 738 mmHg 74%
    19:00 +2°C° 0 mm 1 m/S 738 mmHg 76%
    20:00 +2°C° 0 mm 1 m/S 738 mmHg 78%
    21:00 +1°C° 0 mm 1 m/S 738 mmHg 79%
    22:00 +1°C° 0 mm 1 m/S 738 mmHg 79%
    23:00 +1°C° 0 mm 1 m/S 738 mmHg 80%

    22 Januar, Montag

    Zeit Temperatur Niederschläge Wind Luftdruck Luftfeuchtigkeit
    00:00 +1°C° 0 mm 1 m/S 739 mmHg 81%
    01:00 -1°C° 0 mm 2 m/S 739 mmHg 82%
    02:00 -2°C° 0 mm 2 m/S 739 mmHg 83%
    03:00 -2°C° 0 mm 2 m/S 739 mmHg 83%
    04:00 -2°C° 0 mm 2 m/S 739 mmHg 84%
    05:00 -2°C° 0 mm 2 m/S 739 mmHg 84%
    06:00 -2°C° 0 mm 2 m/S 740 mmHg 84%
    07:00 -2°C° 0 mm 2 m/S 740 mmHg 85%
    08:00 -2°C° 0 mm 2 m/S 740 mmHg 85%
    09:00 -2°C° 0 mm 2 m/S 741 mmHg 79%
    10:00 -1°C° 0 mm 3 m/S 741 mmHg 73%
    11:00 0°C° 0 mm 3 m/S 741 mmHg 67%
    12:00 0°C° 0 mm 3 m/S 741 mmHg 64%
    13:00 +1°C° 0 mm 3 m/S 741 mmHg 61%
    14:00 +1°C° 0 mm 3 m/S 741 mmHg 58%
    15:00 +1°C° 0 mm 2 m/S 742 mmHg 62%
    16:00 +1°C° 0 mm 2 m/S 742 mmHg 65%
    17:00 +1°C° 0 mm 1 m/S 742 mmHg 69%
    18:00 +1°C° 0 mm 1 m/S 743 mmHg 71%
    19:00 0°C° 0 mm 1 m/S 743 mmHg 74%
    20:00 -1°C° 0 mm 1 m/S 744 mmHg 77%
    21:00 -1°C° 0 mm 1 m/S 744 mmHg 77%
    22:00 -1°C° 0 mm 1 m/S 744 mmHg 76%
    23:00 -1°C° 0 mm 1 m/S 744 mmHg 76%
    Mehr zeigen